Weather reports worldwide

Advertisment
Shoeburyness Landwick, United Kingdom (3693): temperature & dewpoint: 13.01.2019 09:00:00 - 19.01.2019 09:00:00 (GMT)Shoeburyness Landwick, United Kingdom (3693): temperature -20cm & temperature -100cm: 13.01.2019 09:00:00 - 19.01.2019 09:00:00 (GMT)Shoeburyness Landwick, United Kingdom (3693): wind speed & gusts: 13.01.2019 09:00:00 - 19.01.2019 09:00:00 (GMT)Shoeburyness Landwick, United Kingdom (3693): wind direction: 13.01.2019 09:00:00 - 19.01.2019 09:00:00 (GMT)Shoeburyness Landwick, United Kingdom (3693): reduced air pressure: 13.01.2019 09:00:00 - 19.01.2019 09:00:00 (GMT)Shoeburyness Landwick, United Kingdom (3693): visibility: 13.01.2019 09:00:00 - 19.01.2019 09:00:00 (GMT)Shoeburyness Landwick, United Kingdom (3693): sunshine duration: 13.01.2019 09:00:00 - 19.01.2019 09:00:00 (GMT)Shoeburyness Landwick, United Kingdom (3693): precipitation: 13.01.2019 09:00:00 - 19.01.2019 09:00:00 (GMT)
Date & Time tt [°C] td [°C] tt -20cm [°C] tt -100cm [°C] ff [km/h] ff [kn] fx [km/h] fx [kn] dd ppp [hPa] vv [km] sd [min] rr [mm]
19.01.2019 09:00:00 3,0 -0,1 - - 22 12 - - SE 1011,4 35 0 0,0
19.01.2019 08:00:00 2,7 -0,1 - - 22 12 - - SSE 1011,2 23 0 0,0
19.01.2019 07:00:00 2,3 -0,4 - - 22 12 - - SSE 1011,2 23 0 0,0
19.01.2019 06:00:00 2,4 0,1 - - 18 10 - - SSE 1011,4 16 0 0,0
19.01.2019 05:00:00 2,4 -0,2 - - 24 13 - - SSE 1011,8 18 0 0,0
19.01.2019 04:00:00 2,7 0,2 - - 24 13 - - SSE 1012,2 17 0 0,0
19.01.2019 03:00:00 2,9 0,4 - - 24 13 - - SSE 1012,7 15 0 0,0
19.01.2019 02:00:00 3,2 0,6 - - 26 14 - - S 1013,1 13 0 0,0
19.01.2019 01:00:00 3,2 0,7 - - 22 12 - - S 1013,6 14 0 0,0
19.01.2019 00:00:00 3,4 0,6 - - 24 13 - - S 1014,1 15 - 0,0
18.01.2019 23:00:00 3,7 0,6 - - 24 13 - - S 1014,4 18 0 0,0
18.01.2019 22:00:00 3,9 0,7 - - 24 13 - - S 1014,6 18 0 0,0
18.01.2019 21:00:00 4,0 0,8 - - 22 12 - - SSE 1014,7 17 0 0,0
18.01.2019 20:00:00 4,0 0,2 - - 21 11 - - SSE 1014,8 35 0 0,0
18.01.2019 19:00:00 4,1 0,2 - - 18 10 - - SSE 1015,3 40 0 0,0
18.01.2019 18:00:00 4,1 -0,1 - - 21 11 - - SSE 1015,5 29 0 0,0
18.01.2019 17:00:00 4,2 0,0 - - 22 12 - - S 1015,9 40 0 0,0
18.01.2019 16:00:00 4,6 0,2 - - 21 11 - - S 1016,1 30 12 0,0
18.01.2019 15:00:00 5,7 -0,2 - - 26 14 - - S 1016,2 35 30 0,0
18.01.2019 14:00:00 6,0 1,4 - - 15 8 - - SSE 1016,6 35 30 0,0
18.01.2019 13:00:00 5,8 1,4 - - 15 8 - - SSE 1017,3 23 60 0,0
18.01.2019 12:00:00 4,9 0,9 - - 13 7 - - SSE 1018,2 26 60 0,0
18.01.2019 11:00:00 4,4 0,7 - - 13 7 - - S 1018,7 27 48 0,0
18.01.2019 10:00:00 2,5 -0,1 - - 13 7 - - SSW 1018,8 19 0 0,0
18.01.2019 09:00:00 0,5 -0,1 5,9 8,7 9 5 - - S 1018,6 21 0 0,0
18.01.2019 08:00:00 -1,8 -2,9 - - 2 1 - - S 1018,5 19 0 0,0
18.01.2019 07:00:00 -1,7 -2,9 - - 0 0 - - N 1018,5 23 0 0,0
18.01.2019 06:00:00 -1,2 -2,6 - - 5 3 - - W 1018,6 20 0 0,0
18.01.2019 05:00:00 -0,3 -2,9 - - 2 1 - - WSW 1018,6 20 0 0,0
18.01.2019 04:00:00 0,2 -2,8 - - 8 4 - - W 1019,1 29 0 0,0
18.01.2019 03:00:00 0,1 -2,9 - - 9 5 - - W 1019,4 30 0 0,0
18.01.2019 02:00:00 0,3 -2,7 - - 9 5 - - W 1019,0 30 0 0,0
18.01.2019 01:00:00 -0,3 -3,0 - - 11 6 - - NW 1018,6 30 0 0,0
18.01.2019 00:00:00 0,2 -3,0 - - 11 6 - - W 1018,7 30 - 0,0
17.01.2019 23:00:00 0,3 -2,8 - - 13 7 - - NW 1018,4 35 0 0,0
17.01.2019 22:00:00 1,0 -2,8 - - 13 7 - - W 1018,2 40 0 0,0
17.01.2019 21:00:00 0,7 -2,5 - - 13 7 - - WNW 1017,3 45 0 0,0
17.01.2019 20:00:00 1,3 -2,5 - - 16 9 - - WNW 1017,2 40 0 0,0
17.01.2019 19:00:00 1,4 -2,3 - - 18 10 - - WNW 1016,7 45 0 0,0
17.01.2019 18:00:00 1,7 -2,4 - - 16 9 - - NW 1015,7 50 0 0,0
17.01.2019 17:00:00 2,4 -2,3 - - 18 10 - - WNW 1015,2 45 6 0,0
17.01.2019 16:00:00 3,5 -2,4 - - 24 13 - - NW 1013,9 45 60 0,0
17.01.2019 15:00:00 4,1 -2,2 - - 29 16 46 25 NW 1012,8 45 60 0,0
17.01.2019 14:00:00 4,3 -2,2 - - 29 16 50 27 NW 1011,8 50 60 0,0
17.01.2019 13:00:00 3,9 -2,4 - - 34 18 52 28 NW 1011,2 35 60 0,0
17.01.2019 12:00:00 3,5 -2,5 - - 35 19 52 28 NW 1010,7 30 60 0,0
17.01.2019 11:00:00 3,1 -1,1 - - 28 15 - - NW 1010,0 50 54 0,0
17.01.2019 10:00:00 1,7 -0,9 - - 31 17 46 25 NNW 1009,2 50 6 0,0
17.01.2019 09:00:00 2,8 0,8 6,9 8,7 29 16 - - NNW 1007,8 40 0 0,0
17.01.2019 08:00:00 2,9 1,8 - - 16 9 - - NW 1006,3 13 0 0,0
17.01.2019 07:00:00 2,6 1,7 - - 21 11 - - NW 1004,8 10 0 0,2
17.01.2019 06:00:00 3,5 2,9 - - 16 9 - - NW 1003,6 8 0 0,0
17.01.2019 05:00:00 3,5 2,9 - - 9 5 - - WNW 1002,9 6 0 0,0
17.01.2019 04:00:00 4,1 3,5 - - 15 8 - - NW 1002,6 7 0 0,4
17.01.2019 03:00:00 4,8 4,0 - - 13 7 - - W 1002,3 8 0 0,2
17.01.2019 02:00:00 4,3 3,7 - - 11 6 - - SW 1002,2 9 0 0,0
17.01.2019 01:00:00 3,3 2,4 - - 13 7 - - SW 1002,9 11 0 0,0
17.01.2019 00:00:00 3,9 2,9 - - 13 7 - - SW 1003,3 13 - 0,0
16.01.2019 23:00:00 4,4 3,4 - - 11 6 - - WSW 1003,4 16 0 0,0
16.01.2019 22:00:00 5,0 3,9 - - 15 8 - - W 1003,2 14 0 0,0
16.01.2019 21:00:00 5,2 4,4 - - 13 7 - - WSW 1002,9 8 0 0,0
16.01.2019 20:00:00 5,0 4,1 - - 11 6 - - W 1002,5 28 0 0,0
16.01.2019 19:00:00 5,0 4,2 - - 11 6 - - W 1002,3 50 0 0,2
16.01.2019 18:00:00 5,4 4,7 - - 24 13 57 31 NW 1002,2 25 0 1,8
16.01.2019 17:00:00 8,6 7,4 - - 24 13 - - SW 1000,5 18 0 0,0
16.01.2019 16:00:00 8,1 7,5 - - 26 14 - - SSW 1001,2 8 0 0,2
16.01.2019 15:00:00 8,0 7,0 - - 29 16 - - SW 1001,7 8 0 0,0
16.01.2019 14:00:00 8,4 6,6 - - 26 14 - - SW 1002,6 18 0 0,0
16.01.2019 13:00:00 8,3 6,7 - - 24 13 - - SW 1003,7 18 0 0,0
16.01.2019 12:00:00 8,0 6,8 - - 22 12 - - SSW 1004,8 12 0 0,0
16.01.2019 11:00:00 7,9 6,7 - - 28 15 - - SSW 1006,0 11 0 0,0
16.01.2019 10:00:00 7,8 6,3 - - 28 15 - - SW 1006,9 21 0 0,0
16.01.2019 09:00:00 8,1 6,3 7,0 8,7 22 12 - - SW 1007,5 28 0 0,0
16.01.2019 08:00:00 8,1 6,3 - - 21 11 - - SW 1007,8 17 0 0,0
16.01.2019 07:00:00 8,3 6,2 - - 21 11 - - SW 1008,3 24 0 0,0
16.01.2019 06:00:00 8,1 6,4 - - 24 13 - - SW 1008,7 40 0 0,0
16.01.2019 05:00:00 8,1 6,5 - - 26 14 - - SW 1009,4 50 0 0,0
16.01.2019 04:00:00 8,5 6,2 - - 22 12 - - SW 1010,2 45 0 0,0
16.01.2019 03:00:00 8,4 6,5 - - 18 10 - - SW 1011,2 26 0 0,0
16.01.2019 02:00:00 8,0 6,2 - - 18 10 - - SW 1011,9 50 0 0,0
16.01.2019 01:00:00 7,7 5,7 - - 16 9 - - SW 1012,6 50 0 0,0
16.01.2019 00:00:00 7,7 5,4 - - 13 7 - - SW 1013,5 50 - 0,0
15.01.2019 23:00:00 8,2 4,9 - - 18 10 - - SW 1014,2 50 0 0,0
15.01.2019 22:00:00 8,3 4,6 - - 21 11 - - WSW 1014,9 50 0 0,0
15.01.2019 21:00:00 8,4 4,8 - - 18 10 - - WSW 1015,1 50 0 0,0
15.01.2019 20:00:00 8,3 5,0 - - 16 9 - - SW 1015,7 50 0 0,0
15.01.2019 19:00:00 8,3 5,5 - - 16 9 - - SW 1016,3 30 0 0,0
15.01.2019 18:00:00 8,3 5,5 - - 16 9 - - SW 1016,6 50 0 0,0
15.01.2019 17:00:00 8,4 5,6 - - 18 10 - - WSW 1017,0 50 0 0,0
15.01.2019 16:00:00 8,3 5,4 - - 16 9 - - SW 1017,2 45 0 0,0
15.01.2019 15:00:00 8,5 5,8 - - 18 10 - - WSW 1017,7 50 0 0,0
15.01.2019 14:00:00 8,6 5,4 - - 18 10 - - WSW 1018,1 50 0 0,0
15.01.2019 13:00:00 8,4 4,9 - - 21 11 - - W 1018,6 50 0 0,0
15.01.2019 12:00:00 7,8 4,5 - - 16 9 - - SW 1019,3 45 0 0,0
15.01.2019 11:00:00 6,9 4,0 - - 18 10 - - SW 1019,9 35 0 0,0
15.01.2019 10:00:00 6,6 3,8 - - 18 10 - - WSW 1020,2 29 0 0,0
15.01.2019 09:00:00 5,9 3,8 6,7 8,7 16 9 - - WSW 1020,6 24 0 0,0
15.01.2019 08:00:00 5,3 2,8 - - 21 11 - - W 1020,7 40 0 0,0
15.01.2019 07:00:00 4,4 2,3 - - 15 8 - - WSW 1020,5 22 0 0,0
15.01.2019 06:00:00 4,6 2,2 - - 16 9 - - WSW 1020,6 27 0 0,0
15.01.2019 05:00:00 4,3 2,1 - - 16 9 - - WSW 1020,9 29 0 0,0
15.01.2019 04:00:00 4,1 2,0 - - 15 8 - - WSW 1021,4 28 0 0,0
15.01.2019 03:00:00 3,8 1,9 - - 15 8 - - WSW 1021,9 20 0 0,0
15.01.2019 02:00:00 4,1 1,5 - - 9 5 - - WSW 1022,1 26 0 0,0
15.01.2019 01:00:00 4,8 2,1 - - 13 7 - - W 1022,3 23 0 0,0
15.01.2019 00:00:00 5,5 3,0 - - 11 6 - - W 1022,4 17 - 0,0
14.01.2019 23:00:00 5,8 2,3 - - 11 6 - - W 1022,4 20 0 0,0
14.01.2019 22:00:00 6,3 3,2 - - 13 7 - - W 1022,4 16 0 0,0
14.01.2019 21:00:00 5,9 3,5 - - 11 6 - - W 1022,4 15 0 0,0
14.01.2019 20:00:00 6,2 4,1 - - 8 4 - - W 1022,4 15 0 0,0
14.01.2019 19:00:00 5,8 4,8 - - 5 3 - - W 1022,4 12 0 0,0
14.01.2019 18:00:00 6,1 4,8 - - 5 3 - - NNW 1022,4 13 0 0,4
14.01.2019 17:00:00 6,6 4,8 - - 8 4 - - NW 1022,1 16 0 0,0
14.01.2019 16:00:00 7,6 4,3 - - 8 4 - - NW 1021,8 20 0 0,0
14.01.2019 15:00:00 8,1 4,2 - - 11 6 - - NW 1021,0 35 0 0,0
14.01.2019 14:00:00 8,0 3,5 - - 21 11 - - NW 1020,6 40 12 0,0
14.01.2019 13:00:00 8,5 4,6 - - 18 10 - - NNW 1020,6 25 0 0,0
14.01.2019 12:00:00 8,1 4,3 - - 18 10 - - NW 1020,5 20 0 0,0
14.01.2019 11:00:00 7,7 4,1 - - 22 12 - - NW 1020,3 19 36 0,0
14.01.2019 10:00:00 7,2 3,9 - - 15 8 - - NW 1019,5 17 54 0,0
14.01.2019 09:00:00 5,7 3,3 7,2 8,7 13 7 - - WNW 1018,9 16 12 0,0
14.01.2019 08:00:00 6,1 3,3 - - 16 9 - - NW 1018,2 18 0 0,0
14.01.2019 07:00:00 5,8 3,2 - - 16 9 - - NW 1017,2 14 0 0,0
14.01.2019 06:00:00 6,1 3,1 - - 18 10 - - NW 1017,0 16 0 0,0
14.01.2019 05:00:00 6,4 3,0 - - 24 13 - - NW 1015,9 21 0 0,0
14.01.2019 04:00:00 6,7 3,0 - - 24 13 - - WNW 1015,4 21 0 0,0
14.01.2019 03:00:00 7,0 3,0 - - 26 14 48 26 NW 1014,8 21 0 0,0
14.01.2019 02:00:00 7,1 2,7 - - 28 15 - - NW 1013,9 26 0 0,0
14.01.2019 01:00:00 7,6 2,9 - - 29 16 48 26 WNW 1013,2 28 0 0,0
14.01.2019 00:00:00 7,8 2,7 - - 29 16 50 27 WNW 1012,5 22 - 0,0
13.01.2019 23:00:00 8,4 2,8 - - 35 19 48 26 WNW 1012,2 22 0 0,0
13.01.2019 22:00:00 8,4 3,1 - - 31 17 54 29 NW 1012,0 22 0 0,0
13.01.2019 21:00:00 8,9 3,6 - - 35 19 68 37 NW 1011,1 28 0 0,0
13.01.2019 20:00:00 10,7 4,8 - - 42 23 63 34 NW 1010,6 40 0 0,0
13.01.2019 19:00:00 10,9 6,6 - - 34 18 48 26 WNW 1009,8 50 0 0,0
13.01.2019 18:00:00 11,1 7,2 - - 24 13 - - W 1009,5 50 0 0,0
13.01.2019 17:00:00 11,1 7,5 - - 31 17 50 27 WNW 1009,4 40 0 0,0
13.01.2019 16:00:00 11,3 7,4 - - 31 17 52 28 WNW 1009,6 50 0 0,0
13.01.2019 15:00:00 11,9 7,6 - - 35 19 55 30 WNW 1009,4 50 6 0,0
13.01.2019 14:00:00 11,3 7,3 - - 34 18 52 28 W 1009,3 50 0 0,0
13.01.2019 13:00:00 11,3 7,1 - - 39 21 55 30 WNW 1010,3 50 0 0,0
13.01.2019 12:00:00 11,0 6,5 - - 31 17 48 26 WNW 1010,8 50 0 0,0
13.01.2019 11:00:00 10,6 6,4 - - 28 15 46 25 W 1011,9 45 0 0,0
13.01.2019 10:00:00 10,5 6,8 - - 26 14 - - W 1011,8 50 0 0,0
13.01.2019 09:00:00 10,2 7,1 7,0 8,7 18 10 - - W 1012,8 45 0 0,0

tt = temperature
td = dewpoint
tt -20cm = temperature -20cm
tt -100cm = temperature -100cm
ff = wind speed
fx = gusts
dd = wind direction
ppp = reduced air pressure
vv = visibility
sd = sunshine duration
rr = precipitation

Next stations